Hot Springs, AR

5:21 AM CDT on August 20, 2017 (GMT -0500)
Hot Springs Memorial

Weather History for KHOT - April, 2014

Change the Weather History Date:

Saturday, April 19, 2014

  Actual Average Record
Temperature  
Mean Temperature 62 °F -  
Max Temperature 78 °F 76 °F 95 °F (1987)
Min Temperature 46 °F 52 °F 33 °F (1953)
Degree Days  
Heating Degree Days 3    
Growing Degree Days 12 (Base 50)    
Moisture  
Dew Point 49 °F    
Average Humidity 64    
Maximum Humidity 93    
Minimum Humidity 36    
Precipitation  
Precipitation 0.00 in - - ()
Sea Level Pressure  
Sea Level Pressure 30.17 in    
Wind  
Wind Speed 1 mph (SSW)    
Max Wind Speed 6 mph    
Max Gust Speed -    
Visibility 10 miles    
Events      
Averages and records for this station are not official NWS values.
T = Trace of Precipitation, MM = Missing Value Source: NWS Daily Summary

Daily Weather History Graph

Daily Weather History Graph

Search for Another Location

Airport or City:

Trip Planner

Search our weather history database for the weather conditions in past years. The results will help you decide how hot, cold, wet, or windy it might be!

Date:

Astronomy

Apr. 19, 2014 Rise Set
Actual Time 6:35 AM CDT 7:47 PM CDT
Civil Twilight 6:09 AM CDT 8:13 PM CDT
Nautical Twilight 5:38 AM CDT 8:44 PM CDT
Astronomical Twilight 5:06 AM CDT 9:17 PM CDT
Moon No Moon Rise 10:00 AM CDT (4/19)
Length of Visible Light 14h 03m
Length of Day
13h 11m
Waning Gibbous, 78% of the Moon is Illuminated
Apr 19
Waning Gibbous
Apr 22
Last Quarter
Apr 29
New
May 6
First Quarter
May 14
Full

Hourly Weather History & Observations

Time (CDT) Temp. Dew Point Humidity Pressure Visibility Wind Dir Wind Speed Gust Speed Precip Events Conditions
12:53 AM 53.1 °F 46.0 °F 77% 30.18 in 10.0 mi Calm Calm - N/A   Clear
1:53 AM 51.1 °F 46.0 °F 83% 30.17 in 10.0 mi Calm Calm - N/A   Clear
2:53 AM 51.1 °F 46.9 °F 86% 30.17 in 10.0 mi Calm Calm - N/A   Clear
3:53 AM 48.2 °F 46.4 °F 93% 30.18 in 10.0 mi Calm Calm - N/A   Clear
4:53 AM 48.0 °F 45.0 °F 89% 30.18 in 10.0 mi Calm Calm - N/A   Clear
5:53 AM 46.9 °F 44.1 °F 90% 30.19 in 10.0 mi Calm Calm - N/A   Clear
6:53 AM 46.4 °F 44.6 °F 93% 30.22 in 9.0 mi Calm Calm - N/A   Clear
7:53 AM 52.0 °F 46.9 °F 83% 30.22 in 10.0 mi Calm Calm - N/A   Clear
8:53 AM 59.0 °F 51.1 °F 75% 30.23 in 10.0 mi Calm Calm - N/A   Clear
9:53 AM 66.0 °F 53.1 °F 63% 30.23 in 10.0 mi Calm Calm - N/A   Clear
10:53 AM 69.1 °F 53.1 °F 57% 30.24 in 10.0 mi Calm Calm - N/A   Clear
11:53 AM 72.0 °F 51.1 °F 48% 30.23 in 10.0 mi South 3.5 mph - N/A   Clear
12:53 PM 73.9 °F 51.1 °F 45% 30.21 in 10.0 mi SW 5.8 mph - N/A   Mostly Cloudy
1:53 PM 75.9 °F 50.0 °F 40% 30.18 in 10.0 mi WSW 5.8 mph - N/A   Partly Cloudy
2:53 PM 77.0 °F 50.0 °F 39% 30.16 in 10.0 mi South 5.8 mph - N/A   Partly Cloudy
3:53 PM 78.1 °F 48.9 °F 36% 30.14 in 10.0 mi Variable 5.8 mph - N/A   Clear
4:53 PM 77.0 °F 48.9 °F 37% 30.12 in 10.0 mi WSW 5.8 mph - N/A   Scattered Clouds
5:53 PM 77.0 °F 50.0 °F 39% 30.12 in 10.0 mi Variable 5.8 mph - N/A   Mostly Cloudy
6:53 PM 75.0 °F 48.9 °F 40% 30.12 in 10.0 mi Calm Calm - N/A   Clear
7:53 PM 70.0 °F 51.1 °F 51% 30.12 in 10.0 mi Calm Calm - N/A   Clear
8:53 PM 63.0 °F 52.0 °F 67% 30.13 in 10.0 mi ENE 4.6 mph - N/A   Clear
9:53 PM 62.1 °F 52.0 °F 70% 30.14 in 10.0 mi Calm Calm - N/A   Clear
10:53 PM 63.0 °F 52.0 °F 67% 30.14 in 10.0 mi East 3.5 mph - N/A   Clear
11:53 PM 57.9 °F 51.1 °F 78% 30.15 in 10.0 mi Calm Calm - N/A   Clear